Location: Las Navas
(40.6024°N, 4.3345°W)
Time: 01:28:37
(UTC+00:00)

NOSS 3-4 (A) - Pass Details

Date: 03 April 2020
Orbit: 895 x 1317 km, 63.4° (Epoch: 27 May)

Event Time Altitude Azimuth Distance (km) Brightness Sun altitude
Rises 22:03:14 0° 321° (NW) 3,892 7.7 -34.0°
Reaches altitude 10° 22:05:50 10° 317° (NW) 2,991 6.8 -34.3°
Enters shadow 22:12:26 55° 253° (WSW) 1,416 4.3 -35.1°
